Kezdőlap
METAR-TAF:

METAR-TAF

Repülőterek :

Eureka, Nunavut, Kanada

földrajzi szélesség: 79-59N, földrajzi hosszúság: 085-56W, magasság: 10 m

Jelenlegi meteorológiai megfigyelések

A jelentés 32 perccel ezelõtt készült, 23:00 UTC
Déli szél 3 kt, északkeleti és déli között változik
Hőmérséklet -31°C
Páratartalom 68%
Légköri nyomás 1023 hPa
Látótávolság: 24.1 km
Derült ég

METAR: CWEU 152300Z 17003KT 050V180 15SM SKC M31/M35 A3020 RMK SLP232

Idő: 17:32 (23:32 UTC)


TAF: hiányzik

Meteorológiai megfigyelések és előrejelzések több, mint 4000 repülőtéren (METAR és TAF jelentéseket).

A térképen piros és sárga pontok jelzik az elérhető meteorológiai állomásokat.

Mozgassa az egeret a pont fölött, hogy megjelenjen az állomás neve.

Azután kattintson az időjárási megfigyelések és előrejelzések megtekintéséhez.

A térkép megváltoztatása: kattintson a fekete keresztel jelölt zöld gombra ráközelítéshez, a vonallal jelölt zöld gombra távolításhoz, vagy a zöld nyilakra a szomszédos térképek eléréséhez.


METAR-TAF: